Tracking 22124 objects as of 25-Jan-2021
HD Live streaming from Space Station
objects crossing your sky now

STARLINK-1810

Track STARLINK-1810 now!
10-day predictions
STARLINK-1810 is classified as:


NORAD ID: 46709
Int'l Code: 2020-073AR
Perigee: 553.1 km
Apogee: 555.6 km
Inclination: 53.0 °
Period: 95.6 minutes
Semi major axis: 6925 km
RCS: Unknown
Launch date: October 18, 2020
Source: United States (US)
Launch site: AIR FORCE EASTERN TEST RANGE (AFETR)
aabbcc
Your satellite tracking list
Your tracking list is empty




NASA's NSSDC Master Catalog

Two Line Element Set (TLE):
1 46709U 20073AR  21025.25001157 -.00012900  00000-0 -84835-3 0  9994
2 46709  53.0463   8.8865 0001818  52.9817  17.3614 15.06412082 15630
Source of the keplerian elements: AFSPC